Location: Engle Ridge Observatory
(44.8122°N, 85.4398°W)
Time: 20:07:15
(UTC-04:00)

Daily predictions for brighter satellites

Satellite Brightness Start Highest point End
(mag) Time Altitude Azimuth Time Altitude Azimuth Time Altitude Azimuth
Cosmos 1371 Rocket 4.1 21:42:19 10° NNW 21:47:40 71° ENE 21:52:55 10° SSE
SJ-11-01 4.3 21:43:33 10° SSE 21:48:15 85° ENE 21:53:00 10° NNW
Cosmos 1833 Rocket 4.0 21:45:53 10° SE 21:49:44 19° E 21:53:37 10° NE
ISS -3.4 21:47:24 10° WSW 21:50:41 69° NNW 21:53:59 10° ENE
Cosmos 1238 Rocket 4.1 21:45:08 10° S 21:51:48 68° E 21:58:02 10° NNE
Cosmos 2058 Rocket 4.3 21:50:34 10° NNE 21:54:19 27° ENE 21:58:06 10° SE
Cosmos 2074 Rocket 4.3 21:48:43 10° NNW 21:54:58 74° W 22:01:13 10° S
Aureole 3 Rocket 3.6 21:54:40 10° SSW 22:00:23 73° W 22:04:29 10° N
Cosmos 2184 Rocket 4.4 21:54:17 10° NNW 22:00:37 70° W 22:06:50 10° S
Meteor 1-29 2.8 21:57:55 10° NNE 22:01:19 83° ESE 22:04:40 10° SSW
Cosmos 1437 Rocket 2.8 22:01:07 10° N 22:04:57 63° ENE 22:08:49 10° SSE
Intercosmos 24 3.6 22:03:22 10° N 22:07:11 74° E 22:10:44 10° SSE
ASTEX 1 3.4 22:02:37 10° SSE 22:07:31 79° E 22:12:25 10° N
Cosmos 1939 Rocket 3.4 22:03:52 10° S 22:07:39 56° W 22:11:30 10° NNW
Meteor 2-4 Rocket 4.0 22:02:47 10° SSW 22:08:29 79° W 22:14:23 10° N
Cosmos 1515 4.1 22:10:11 10° SSE 22:13:46 42° E 22:17:24 10° NNE
H-2A R/B 4.3 22:12:43 10° E 22:15:07 14° ENE 22:17:30 10° NNE
Resurs 01 Rocket 4.3 22:13:04 10° SW 22:16:04 18° W 22:19:05 10° NW
Meteor 2-19 Rocket 4.5 22:13:54 10° N 22:20:03 72° E 22:26:11 10° SSE
Cosmos 1980 Rocket 3.5 22:16:13 10° N 22:21:02 27° NE 22:25:48 10° ESE
ARGOS 3.4 22:20:51 11° SSE 22:25:53 58° ENE 22:31:13 10° N
Cosmos 1624 Rocket 4.5 22:24:58 10° NNW 22:30:12 62° WSW 22:35:25 10° S
TELKOM 3 3.2 22:29:50 10° WNW 22:32:06 66° SSW 22:33:53 20° SE
Cosmos 2322 Rocket 4.4 22:29:00 10° N 22:32:18 15° NE 22:35:35 10° ENE
Cosmos 2228 3.2 22:28:18 10° N 22:32:32 54° ENE 22:35:49 16° SSE
Cosmos 921 Rocket 3.1 22:28:41 10° NNW 22:33:12 85° WSW 22:37:02 13° SSE
NOSS 8 (E) 4.4 22:32:39 10° SSW 22:36:05 71° SE 22:39:52 10° NE
Tiangong 2 1.1 22:33:56 10° W 22:37:05 60° S 22:39:21 17° ESE
Helios 1B rocket 4.3 22:33:49 10° N 22:37:33 33° WNW 22:41:16 10° SW
SL-8 Rocket 4.2 22:32:45 10° N 22:38:58 60° ENE 22:44:12 15° SSE
MetOp-B 4.2 22:36:14 11° SSE 22:41:23 85° WSW 22:46:46 10° NNW
NOAA 11 4.3 22:35:59 10° S 22:41:25 79° WSW 22:46:53 10° NNW
H-2A R/B 2.4 22:38:01 16° SE 22:41:44 49° ENE 22:46:38 10° N
Cosmos 2366 rocket 4.3 22:39:52 10° N 22:45:51 50° ENE 22:50:17 18° SE
Cosmos 2056 Rocket 4.4 22:44:56 10° NNW 22:49:48 43° WSW 22:54:36 10° S
CZ-3A R/B -0.6 22:48:03 10° SW 22:51:01 71° SE 22:51:31 37° ENE
Lacrosse 5 rocket 3.6 22:50:26 10° NW 22:54:14 24° NNE 22:58:03 10° ENE
Cosmos 1892 Rocket 3.9 22:50:11 10° SSW 22:54:36 69° W 22:59:00 10° N
Meteor 1-4 Rocket 2.5 22:52:56 10° N 22:56:30 62° ENE 22:58:16 27° SSE
Terra 2.7 22:55:30 20° ESE 22:58:15 37° ENE 23:02:37 10° N
Cosmos 1602 Rocket 3.9 22:57:24 22° SSE 22:59:47 44° E 23:03:54 10° NNE
Cosmos 2082 Rocket 2.1 22:54:31 10° SSW 23:00:10 76° ESE 23:05:51 10° NNE
Cosmos 2278 4.3 22:55:08 10° NW 23:00:41 53° WSW 23:05:11 15° S
Cosmos 1420 Rocket 4.0 23:00:32 10° NNW 23:05:49 73° ENE 23:08:59 24° SSE
DMSP B5D2-2 4.4 23:03:43 10° NNE 23:08:51 49° E 23:11:57 23° SSE
SPOT 5 3.1 23:07:20 17° S 23:10:30 55° W 23:14:50 10° NNW
Cosmos 1048 Rocket 4.3 23:08:12 22° SSE 23:11:10 45° ESE 23:16:07 10° NNE
deb Chang Zheng 4 4.5 23:09:27 10° NE 23:13:19 31° E 23:14:27 27° SE
Cosmos 1656 4.0 23:09:29 10° NNW 23:14:50 57° WSW 23:18:29 20° S
Meteor 1-22 Rocket 4.1 23:10:45 10° N 23:16:05 78° E 23:19:20 25° SSE
Cosmos 1697 Rocket 2.7 23:10:35 10° NNW 23:16:13 78° WSW 23:19:38 25° SSE
COSMOS 2487 3.9 23:13:45 10° SW 23:17:05 38° WNW 23:20:28 10° N
Cosmos 1809 Rocket 4.4 23:11:03 10° N 23:17:10 90° E 23:21:21 22° S
Cosmos 389 Rocket 4.2 23:15:20 10° NNE 23:17:52 19° ENE 23:18:30 18° E
SL-08 RB Rocket 4.2 23:16:19 19° S 23:19:20 55° W 23:23:44 10° NNW
Cosmos 1452 Rocket 4.0 23:16:30 10° NNW 23:21:40 56° WSW 23:24:59 22° S
Lacrosse 5 3.6 23:25:30 16° E 23:25:30 16° E 23:27:18 10° ENE
SL-08 R/B 4.4 23:18:50 10° N 23:24:59 85° W 23:29:03 23° S
Cosmos 2360 4.4 23:19:18 10° NNW 23:25:00 65° ENE 23:28:04 28° SE
USA 245 4.2 23:24:43 18° WSW 23:25:22 20° W 23:27:10 10° NW
CARTOSAT-1 3.6 23:24:03 33° SSE 23:25:54 67° ENE 23:30:12 10° N
SL-16 R/B 3.4 23:21:05 10° N 23:26:08 32° NE 23:29:33 18° ESE
Iridium 2 4.1 23:23:07 10° N 23:26:47 45° E 23:27:42 37° ESE
Timation 2 Rocket 3.9 23:20:37 10° SSW 23:26:57 73° ESE 23:33:04 10° NNE
ISS -1.5 23:24:45 10° WNW 23:27:35 26° N 23:30:26 10° NE
Cosmos 2218 Rocket 4.2 23:23:10 10° NNW 23:29:18 70° W 23:33:41 20° S
Cosmos 1833 Rocket 3.0 23:27:30 10° SW 23:33:04 66° WNW 23:38:43 10° NNE
SPOT 1/Viking Rocket 4.1 23:30:09 20° S 23:33:32 52° W 23:38:34 10° NNW
IGS 5A 3.4 23:32:35 37° SSE 23:34:08 76° ENE 23:38:18 10° N
Meteor 2-16 Rocket 4.4 23:28:33 10° N 23:34:44 80° E 23:38:10 28° SSE
ATLAS CENTAUR R/B 2.6 23:33:49 10° NNW 23:37:02 27° NE 23:38:30 21° E
SL-19 R/B 4.1 23:32:28 10° NNE 23:37:45 61° ESE 23:40:12 31° S
Cosmos 1271 Rocket 2.7 23:35:34 10° N 23:39:29 79° E 23:40:35 46° SSE
Cosmos 1842 3.3 23:38:52 45° SSE 23:39:49 63° E 23:43:44 10° NNE
CZ-4C R/B 3.9 23:45:30 34° E 23:46:03 37° ENE 23:49:28 10° N
Cosmos 1758 Rocket 4.3 23:47:43 34° ESE 23:48:19 35° E 23:52:18 10° NNE
Cosmos 1544 2.9 23:45:19 10° N 23:48:57 83° E 23:49:33 60° SSE
H-2A R/B 2.2 23:48:48 37° S 23:50:32 73° WSW 23:55:05 10° NNW
Cosmos 1812 Rocket 3.9 23:47:16 10° NNW 23:51:42 60° W 23:53:29 34° SSW
